{"data":{"norad_id":60486,"epoch":"2026-05-25T03:36:13.135392Z","epoch_age_seconds":61254,"freshness":"FRESH","line1":"1 60486U 24149U   26145.15015203  .00016614  00000+0  39265-3 0  9994","line2":"2 60486  97.3739 229.3164 0003025  18.8397 341.2962 15.41904264 98805","mean_motion":15.41904264,"eccentricity":0.0003025,"inclination_deg":97.3739,"raan_deg":229.3164,"arg_perigee_deg":18.8397,"mean_anomaly_deg":341.2962,"bstar":0.00039265,"rev_number":9880,"period_min":93.391012245103,"perigee_km":438.42686074795,"apogee_km":442.55212977758,"semimajor_km":6818.6264952628,"source":"CELESTRAK","updated_at":"2026-05-25T13:38:13.302634Z"}}